Volk, WI

9:22 AM CDT on June 24, 2017 (GMT -0500)
Volk

Weather History for KVOK - March, 2013

Change the Weather History Date:

Wednesday, March 6, 2013

  Actual Average Record
Temperature  
Mean Temperature 20 °F -  
Max Temperature 30 °F 31 °F 62 °F (2017)
Min Temperature 6 °F 19 °F -11 °F (2014)
Degree Days  
Heating Degree Days 45    
Moisture  
Dew Point 18 °F    
Average Humidity 80    
Maximum Humidity 92    
Minimum Humidity 60    
Precipitation  
Precipitation 0.00 in - - ()
Snow  
Snow 0.00 in - - ()
Snow Depth 8.00 in    
Sea Level Pressure  
Sea Level Pressure 30.31 in    
Wind  
Wind Speed 10 mph (WNW)    
Max Wind Speed 14 mph    
Max Gust Speed -    
Visibility 10 miles    
Events      
Averages and records for this station are not official NWS values.
T = Trace of Precipitation, MM = Missing Value Source: NWS Daily Summary

Daily Weather History Graph

Daily Weather History Graph

Search for Another Location

Airport or City:

Trip Planner

Search our weather history database for the weather conditions in past years. The results will help you decide how hot, cold, wet, or windy it might be!

Date:

Astronomy

Mar. 06, 2013 Rise Set
Actual Time 6:28 AM CST 5:56 PM CST
Civil Twilight 6:00 AM CST 6:25 PM CST
Nautical Twilight 5:26 AM CST 6:58 PM CST
Astronomical Twilight 4:53 AM CST 7:32 PM CST
Moon 2:46 AM CST (3/6) 12:29 PM CST (3/6)
Length of Visible Light 12h 25m
Length of Day
11h 27m
Waning Crescent, 29% of the Moon is Illuminated
Mar 6
Waning Crescent
Mar 11
New
Mar 19
First Quarter
Mar 27
Full
Apr 2
Last Quarter

Hourly Weather History & Observations

Time (CST) Temp. Windchill Dew Point Humidity Pressure Visibility Wind Dir Wind Speed Gust Speed Precip Events Conditions
12:55 AM 25.0 °F 14.2 °F 20.5 °F 83% 30.21 in 10.0 mi NNW 11.5 mph - N/A   Overcast
1:08 AM 24.8 °F 15.3 °F 21.2 °F 86% 30.21 in 10.0 mi NW 9.2 mph - N/A   Overcast
1:55 AM 24.8 °F 16.1 °F 20.3 °F 83% 30.22 in 10.0 mi NNW 8.1 mph - N/A   Overcast
2:55 AM 24.8 °F 14.6 °F 20.3 °F 83% 30.23 in 10.0 mi NW 10.4 mph - N/A   Overcast
3:55 AM 24.4 °F 14.2 °F 20.1 °F 84% 30.25 in 10.0 mi NW 10.4 mph - N/A   Overcast
4:55 AM 24.3 °F 13.9 °F 19.6 °F 82% 30.28 in 10.0 mi NW 10.4 mph - N/A   Overcast
5:55 AM 24.3 °F 14.6 °F 19.6 °F 82% 30.30 in 10.0 mi NW 9.2 mph - N/A   Overcast
6:55 AM 24.8 °F 16.1 °F 19.4 °F 80% 30.30 in 10.0 mi NW 8.1 mph - N/A   Overcast
7:55 AM 24.8 °F 13.4 °F 21.2 °F 86% 30.32 in 10.0 mi NW 12.7 mph - N/A   Overcast
8:55 AM 24.8 °F 12.9 °F 21.2 °F 86% 30.34 in 10.0 mi NW 13.8 mph - N/A   Overcast
9:55 AM 26.6 °F 16.8 °F 21.2 °F 80% 30.35 in 10.0 mi NW 10.4 mph - N/A   Overcast
10:55 AM 28.4 °F 18.0 °F 21.2 °F 74% 30.35 in 10.0 mi NW 12.7 mph - N/A   Overcast
11:55 AM 28.4 °F 19.1 °F 21.2 °F 74% 30.34 in 10.0 mi NW 10.4 mph - N/A   Overcast
12:55 PM 28.4 °F 19.1 °F 21.2 °F 74% 30.33 in 10.0 mi WNW 10.4 mph - N/A   Overcast
1:55 PM 30.2 °F 21.3 °F 21.2 °F 69% 30.32 in 10.0 mi WNW 10.4 mph - N/A   Overcast
2:55 PM 30.2 °F 20.8 °F 19.4 °F 64% 30.32 in 10.0 mi NW 11.5 mph - N/A   Overcast
3:55 PM 30.2 °F 21.3 °F 19.4 °F 64% 30.32 in 10.0 mi WNW 10.4 mph - N/A   Mostly Cloudy
4:08 PM 30.2 °F 21.9 °F 19.4 °F 64% 30.28 in 10.0 mi WNW 9.2 mph - N/A   Mostly Cloudy
4:55 PM 30.2 °F 23.4 °F 17.6 °F 60% 30.31 in 10.0 mi West 6.9 mph - N/A   Scattered Clouds
5:55 PM 23.0 °F 13.1 °F 15.8 °F 74% 30.32 in 10.0 mi West 9.2 mph - N/A   Partly Cloudy
6:55 PM 15.8 °F 8.6 °F 12.2 °F 86% 30.35 in 10.0 mi West 4.6 mph - N/A   Partly Cloudy
7:55 PM 12.2 °F 2.9 °F 10.4 °F 92% 30.35 in 10.0 mi WNW 5.8 mph - N/A   Clear
8:55 PM 12.2 °F 2.9 °F 9.3 °F 88% 30.36 in 10.0 mi WNW 5.8 mph - N/A   Clear
9:55 PM 10.4 °F 0.8 °F 8.6 °F 92% 30.36 in 10.0 mi WNW 5.8 mph - N/A   Clear
10:55 PM 14.0 °F 3.9 °F 10.4 °F 86% 30.36 in 10.0 mi West 6.9 mph - N/A   Clear
11:55 PM 6.8 °F -2.0 °F 5.0 °F 92% 30.37 in 10.0 mi West 4.6 mph - N/A   Clear